BON364G FALE-FQBR

Flight info

Callsign BON364G
Flight time 1h 45m
Altitude 39000
Route ITMIL UB529 VMA UM310 ETLAM ETLAM1A
Aircraft B772/H-SDE2E3FGHIJ5LORVWXY/LB1D1

Departure

Time 2026-05-07 17:20
Airport King Shaka International Airport (FALE)

Arrival

Time 2026-05-07 19:05
Airport Beira International Airport (FQBR)
Time Latitude Longitude Altitude Speed Heading
2026-05-07 16:27 -29.61723 31.10643 300 ft 0 kts 128°
2026-05-07 17:02 -29.61720 31.10638 304 ft 1 kts 128°
2026-05-07 17:02 -29.61716 31.10632 304 ft 1 kts 128°
2026-05-07 17:02 -29.61711 31.10626 304 ft 1 kts 128°
2026-05-07 17:03 -29.61707 31.10619 302 ft 1 kts 128°
2026-05-07 17:03 -29.61702 31.10612 301 ft 1 kts 128°
2026-05-07 17:03 -29.61696 31.10604 301 ft 1 kts 128°
2026-05-07 17:03 -29.61691 31.10596 303 ft 1 kts 128°
2026-05-07 17:04 -29.61685 31.10588 303 ft 1 kts 128°
2026-05-07 17:04 -29.61680 31.10580 301 ft 1 kts 128°
2026-05-07 17:04 -29.61674 31.10572 300 ft 1 kts 128°
2026-05-07 17:04 -29.61669 31.10564 304 ft 1 kts 128°
2026-05-07 17:05 -29.61663 31.10556 304 ft 1 kts 128°
2026-05-07 17:05 -29.61658 31.10548 304 ft 1 kts 128°
2026-05-07 17:05 -29.61652 31.10540 304 ft 1 kts 128°
2026-05-07 17:05 -29.61650 31.10537 303 ft 0 kts 128°
2026-05-07 17:13 -29.61648 31.10549 300 ft 3 kts 73°
2026-05-07 17:13 -29.61630 31.10564 309 ft 6 kts 36°
2026-05-07 17:14 -29.61579 31.10608 304 ft 10 kts 36°
2026-05-07 17:14 -29.61526 31.10686 304 ft 15 kts 79°
2026-05-07 17:14 -29.61564 31.10790 303 ft 15 kts 126°
2026-05-07 17:14 -29.61625 31.10883 305 ft 15 kts 127°
2026-05-07 17:15 -29.61687 31.10977 305 ft 15 kts 127°
2026-05-07 17:15 -29.61749 31.11069 304 ft 15 kts 129°
2026-05-07 17:15 -29.61834 31.11105 303 ft 15 kts 205°
2026-05-07 17:15 -29.61918 31.11040 304 ft 15 kts 217°
2026-05-07 17:16 -29.61999 31.10969 303 ft 15 kts 217°
2026-05-07 17:16 -29.62080 31.10898 306 ft 15 kts 217°
2026-05-07 17:16 -29.62161 31.10827 305 ft 15 kts 217°
2026-05-07 17:16 -29.62242 31.10757 304 ft 15 kts 217°
2026-05-07 17:17 -29.62320 31.10690 304 ft 7 kts 217°
2026-05-07 17:17 -29.62358 31.10657 303 ft 7 kts 212°
2026-05-07 17:17 -29.62377 31.10651 304 ft 0 kts 186°
2026-05-07 17:18 -29.62413 31.10667 301 ft 11 kts 143°
2026-05-07 17:18 -29.62463 31.10733 305 ft 11 kts 128°
2026-05-07 17:18 -29.62468 31.10804 303 ft 10 kts 57°
2026-05-07 17:19 -29.62432 31.10841 306 ft 0 kts 39°
2026-05-07 17:19 -29.62311 31.10947 307 ft 59 kts 37°
2026-05-07 17:19 -29.61775 31.11410 304 ft 131 kts 37°
2026-05-07 17:19 -29.60909 31.12140 513 ft 169 kts 37°
2026-05-07 17:20 -29.59961 31.12946 1449 ft 162 kts 33°
2026-05-07 17:20 -29.59118 31.13797 2326 ft 164 kts 34°
2026-05-07 17:20 -29.58164 31.14658 2728 ft 190 kts 26°
2026-05-07 17:20 -29.57005 31.15536 3372 ft 202 kts 27°
2026-05-07 17:21 -29.55884 31.16515 4272 ft 204 kts 31°
2026-05-07 17:21 -29.54768 31.17532 5078 ft 207 kts 34°
2026-05-07 17:21 -29.53646 31.18599 5831 ft 210 kts 36°
2026-05-07 17:21 -29.52562 31.19715 6488 ft 211 kts 39°
2026-05-07 17:22 -29.51501 31.20924 6994 ft 219 kts 43°
2026-05-07 17:22 -29.50493 31.22244 7536 ft 221 kts 47°
2026-05-07 17:22 -29.49572 31.23678 8056 ft 225 kts 51°
2026-05-07 17:22 -29.48542 31.25124 8287 ft 245 kts 44°
2026-05-07 17:23 -29.47330 31.26635 8476 ft 270 kts 44°
2026-05-07 17:23 -29.46000 31.28264 8894 ft 286 kts 44°
2026-05-07 17:23 -29.44634 31.29940 9706 ft 289 kts 44°
2026-05-07 17:23 -29.43257 31.31634 10501 ft 291 kts 43°
2026-05-07 17:24 -29.41869 31.33345 11235 ft 296 kts 43°
2026-05-07 17:24 -29.40454 31.35091 11982 ft 301 kts 43°
2026-05-07 17:24 -29.39018 31.36862 12844 ft 305 kts 42°
2026-05-07 17:24 -29.37575 31.38645 13778 ft 305 kts 41°
2026-05-07 17:25 -29.36146 31.40411 14503 ft 307 kts 40°
2026-05-07 17:25 -29.34689 31.42210 14875 ft 309 kts 40°
2026-05-07 17:25 -29.33210 31.44033 14863 ft 313 kts 40°
2026-05-07 17:25 -29.31737 31.45852 14870 ft 310 kts 40°
2026-05-07 17:26 -29.30278 31.47655 14867 ft 308 kts 39°
2026-05-07 17:26 -29.28813 31.49459 15310 ft 310 kts 38°
2026-05-07 17:26 -29.27147 31.50948 16061 ft 299 kts 19°
2026-05-07 17:26 -29.25247 31.51767 16944 ft 291 kts 10°
2026-05-07 17:27 -29.23317 31.52497 17830 ft 293 kts 10°
2026-05-07 17:27 -29.21377 31.53235 18655 ft 294 kts
2026-05-07 17:27 -29.19423 31.53980 19388 ft 298 kts
2026-05-07 17:27 -29.17453 31.54735 20149 ft 300 kts
2026-05-07 17:28 -29.15476 31.55496 20950 ft 301 kts
2026-05-07 17:28 -29.13487 31.56264 21691 ft 303 kts
2026-05-07 17:28 -29.11476 31.57041 22350 ft 308 kts
2026-05-07 17:28 -29.09435 31.57830 23023 ft 311 kts
2026-05-07 17:29 -29.07379 31.58627 23699 ft 313 kts
2026-05-07 17:29 -29.05310 31.59430 24272 ft 316 kts
2026-05-07 17:29 -29.03214 31.60243 24781 ft 320 kts
2026-05-07 17:29 -29.01094 31.61066 25325 ft 323 kts
2026-05-07 17:30 -28.98958 31.61896 25879 ft 326 kts
2026-05-07 17:30 -28.96797 31.62735 26419 ft 330 kts
2026-05-07 17:30 -28.94615 31.63581 26941 ft 333 kts
2026-05-07 17:30 -28.92405 31.64438 27504 ft 337 kts
2026-05-07 17:31 -28.90175 31.65304 28056 ft 340 kts
2026-05-07 17:31 -28.87929 31.66175 28617 ft 343 kts
2026-05-07 17:31 -28.85654 31.67056 29098 ft 348 kts
2026-05-07 17:31 -28.83354 31.67947 29677 ft 350 kts
2026-05-07 17:32 -28.81823 31.68540 30041 ft 352 kts
2026-05-07 17:32 -28.79488 31.69443 30471 ft 356 kts
2026-05-07 17:32 -28.76365 31.70652 31030 ft 360 kts
2026-05-07 17:32 -28.74757 31.71273 31321 ft 362 kts
2026-05-07 17:33 -28.71578 31.72502 31904 ft 366 kts
2026-05-07 17:33 -28.69161 31.73436 32328 ft 369 kts
2026-05-07 17:33 -28.66715 31.74380 32679 ft 374 kts
2026-05-07 17:33 -28.64213 31.75340 32783 ft 385 kts
2026-05-07 17:34 -28.61640 31.76324 32863 ft 396 kts
2026-05-07 17:34 -28.58992 31.77338 32941 ft 407 kts
2026-05-07 17:34 -28.54403 31.79101 33093 ft 423 kts
2026-05-07 17:35 -28.48768 31.81274 33315 ft 437 kts
2026-05-07 17:35 -28.45867 31.82394 33463 ft 443 kts
2026-05-07 17:35 -28.42938 31.83525 33725 ft 445 kts
2026-05-07 17:36 -28.40011 31.84658 34014 ft 445 kts
2026-05-07 17:36 -28.37076 31.85790 34244 ft 447 kts
2026-05-07 17:36 -28.34120 31.86925 34414 ft 450 kts
2026-05-07 17:36 -28.31148 31.88063 34564 ft 453 kts
2026-05-07 17:37 -28.28148 31.89212 34752 ft 455 kts
2026-05-07 17:37 -28.25142 31.90364 34925 ft 457 kts
2026-05-07 17:37 -28.22140 31.91517 35265 ft 455 kts
2026-05-07 17:37 -28.19142 31.92666 35577 ft 454 kts
2026-05-07 17:38 -28.16143 31.93814 35797 ft 455 kts
2026-05-07 17:38 -28.13143 31.94959 36020 ft 456 kts
2026-05-07 17:38 -28.10127 31.96109 36248 ft 457 kts
2026-05-07 17:38 -28.07114 31.97257 36487 ft 458 kts
2026-05-07 17:39 -28.04094 31.98407 36760 ft 457 kts
2026-05-07 17:39 -28.01078 31.99561 36938 ft 458 kts
2026-05-07 17:39 -27.98052 32.00714 37121 ft 458 kts
2026-05-07 17:39 -27.95030 32.01865 37285 ft 460 kts
2026-05-07 17:40 -27.91993 32.03018 37555 ft 460 kts
2026-05-07 17:40 -27.88964 32.04168 37831 ft 459 kts
2026-05-07 17:40 -27.85936 32.05319 38020 ft 460 kts
2026-05-07 17:40 -27.82902 32.06470 38215 ft 461 kts
2026-05-07 17:41 -27.79855 32.07627 38409 ft 462 kts
2026-05-07 17:41 -27.76805 32.08783 38634 ft 462 kts
2026-05-07 17:41 -27.73763 32.09937 38774 ft 463 kts
2026-05-07 17:41 -27.70698 32.11097 38816 ft 465 kts
2026-05-07 17:42 -27.64562 32.13420 38876 ft 465 kts
2026-05-07 17:42 -27.58481 32.15722 38871 ft 463 kts
2026-05-07 17:43 -27.52372 32.18031 38873 ft 463 kts
2026-05-07 17:43 -27.46268 32.20332 38890 ft 463 kts
2026-05-07 17:44 -27.40158 32.22632 38886 ft 464 kts
2026-05-07 17:44 -27.34033 32.24936 38881 ft 464 kts
2026-05-07 17:45 -27.27904 32.27241 38875 ft 464 kts
2026-05-07 17:45 -27.21770 32.29543 38882 ft 465 kts
2026-05-07 17:46 -27.15642 32.31841 38879 ft 465 kts
2026-05-07 17:46 -27.09513 32.34137 38876 ft 464 kts
2026-05-07 17:47 -27.03388 32.36429 38879 ft 464 kts
2026-05-07 17:47 -26.97265 32.38718 38881 ft 463 kts
2026-05-07 17:48 -26.91149 32.41001 38887 ft 463 kts
2026-05-07 17:48 -26.85018 32.43115 38908 ft 457 kts
2026-05-07 17:49 -26.78797 32.44294 38892 ft 453 kts 360°
2026-05-07 17:49 -26.72547 32.45355 38881 ft 455 kts 360°
2026-05-07 17:50 -26.66277 32.46444 38880 ft 457 kts
2026-05-07 17:50 -26.59990 32.47556 38878 ft 458 kts
2026-05-07 17:51 -26.53692 32.48673 38871 ft 458 kts
2026-05-07 17:51 -26.47398 32.49789 38872 ft 458 kts
2026-05-07 17:52 -26.41096 32.50903 38886 ft 458 kts
2026-05-07 17:52 -26.34799 32.52014 38882 ft 458 kts
2026-05-07 17:53 -26.28555 32.53115 38874 ft 457 kts
2026-05-07 17:53 -26.22272 32.54222 38867 ft 457 kts
2026-05-07 17:54 -26.16008 32.55324 38863 ft 457 kts
2026-05-07 17:54 -26.09766 32.56426 38845 ft 443 kts
2026-05-07 17:55 -26.06773 32.56961 38842 ft 428 kts 360°
2026-05-07 17:55 -26.03880 32.57475 38835 ft 414 kts 359°
2026-05-07 17:55 -25.98295 32.58447 38844 ft 403 kts 359°
2026-05-07 17:56 -25.92761 32.59404 38852 ft 402 kts 359°
2026-05-07 17:56 -25.87229 32.60421 38858 ft 406 kts
2026-05-07 17:57 -25.82655 32.61896 38860 ft 415 kts
2026-05-07 17:57 -25.76235 32.64270 38863 ft 417 kts
2026-05-07 17:58 -25.70705 32.66302 38870 ft 420 kts
2026-05-07 17:58 -25.65111 32.68331 38889 ft 431 kts
2026-05-07 17:59 -25.59324 32.70424 38892 ft 444 kts
2026-05-07 17:59 -25.53366 32.72580 38894 ft 456 kts
2026-05-07 18:00 -25.47277 32.74786 38893 ft 465 kts
2026-05-07 18:00 -25.41066 32.77034 38882 ft 474 kts
2026-05-07 18:01 -25.34754 32.79315 38886 ft 480 kts
2026-05-07 18:01 -25.28371 32.81620 38891 ft 484 kts
2026-05-07 18:02 -25.18712 32.85099 38892 ft 488 kts 10°
2026-05-07 18:03 -25.12297 32.87400 38885 ft 488 kts 10°
2026-05-07 18:03 -25.05842 32.89714 38890 ft 487 kts 10°
2026-05-07 18:04 -24.99403 32.92021 38882 ft 486 kts 10°
2026-05-07 18:04 -24.92989 32.94316 38882 ft 484 kts 10°
2026-05-07 18:05 -24.86578 32.96607 38891 ft 483 kts 10°
2026-05-07 18:05 -24.80190 32.98886 38903 ft 482 kts 10°
2026-05-07 18:06 -24.73806 33.01161 38901 ft 482 kts 10°
2026-05-07 18:06 -24.67424 33.03432 38903 ft 482 kts 10°
2026-05-07 18:07 -24.61034 33.05706 38901 ft 483 kts 10°
2026-05-07 18:07 -24.54659 33.08056 38912 ft 485 kts 12°
2026-05-07 18:08 -24.48323 33.10680 38911 ft 487 kts 13°
2026-05-07 18:08 -24.41984 33.13342 38912 ft 488 kts 13°
2026-05-07 18:09 -24.35672 33.15950 38916 ft 488 kts 13°
2026-05-07 18:09 -24.29304 33.18554 38915 ft 488 kts 13°
2026-05-07 18:10 -24.22933 33.21152 38919 ft 489 kts 13°
2026-05-07 18:10 -24.16564 33.23747 38921 ft 489 kts 13°
2026-05-07 18:11 -24.10189 33.26344 38921 ft 489 kts 13°
2026-05-07 18:11 -24.03819 33.28937 38928 ft 489 kts 13°
2026-05-07 18:12 -23.97448 33.31527 38927 ft 488 kts 13°
2026-05-07 18:12 -23.91077 33.34115 38934 ft 488 kts 14°
2026-05-07 18:13 -23.84707 33.36699 38934 ft 488 kts 14°
2026-05-07 18:13 -23.78331 33.39282 38936 ft 488 kts 14°
2026-05-07 18:14 -23.71957 33.41863 38937 ft 489 kts 14°
2026-05-07 18:14 -23.65583 33.44441 38931 ft 489 kts 14°
2026-05-07 18:15 -23.59199 33.47021 38950 ft 489 kts 14°
2026-05-07 18:15 -23.52820 33.49596 38949 ft 489 kts 14°
2026-05-07 18:16 -23.46435 33.52182 38952 ft 489 kts 14°
2026-05-07 18:16 -23.40054 33.54778 38951 ft 490 kts 14°
2026-05-07 18:17 -23.33666 33.57373 38952 ft 490 kts 14°
2026-05-07 18:17 -23.27275 33.59951 38957 ft 489 kts 14°
2026-05-07 18:18 -23.20851 33.62370 38957 ft 489 kts 13°
2026-05-07 18:18 -23.14449 33.64719 38959 ft 489 kts 13°
2026-05-07 18:19 -23.07965 33.67117 38958 ft 489 kts 13°
2026-05-07 18:19 -23.01572 33.69496 38961 ft 489 kts 13°
2026-05-07 18:20 -22.95133 33.71894 38957 ft 489 kts 13°
2026-05-07 18:20 -22.88693 33.74289 38962 ft 489 kts 13°
2026-05-07 18:21 -22.83339 33.76277 38960 ft 489 kts 13°
2026-05-07 18:21 -22.75824 33.79066 38963 ft 489 kts 13°
2026-05-07 18:22 -22.70472 33.81049 38965 ft 488 kts 13°
2026-05-07 18:22 -22.64033 33.83434 38976 ft 488 kts 13°
2026-05-07 18:23 -22.57602 33.85813 38972 ft 488 kts 13°
2026-05-07 18:23 -22.51175 33.88190 38969 ft 488 kts 12°
2026-05-07 18:24 -22.44825 33.90539 38970 ft 475 kts 12°
2026-05-07 18:24 -22.38606 33.92835 38968 ft 471 kts 12°
2026-05-07 18:25 -22.32397 33.95121 38976 ft 471 kts 12°
2026-05-07 18:25 -22.26191 33.97406 38976 ft 471 kts 12°
2026-05-07 18:26 -22.19976 33.99695 38975 ft 472 kts 12°
2026-05-07 18:26 -22.13797 34.01968 38976 ft 473 kts 12°
2026-05-07 18:27 -22.07560 34.04230 38974 ft 473 kts 12°
2026-05-07 18:27 -22.01318 34.06475 38979 ft 473 kts 11°
2026-05-07 18:28 -21.95068 34.08725 38978 ft 472 kts 11°
2026-05-07 18:28 -21.88919 34.10946 38969 ft 462 kts 11°
2026-05-07 18:29 -21.82828 34.13138 38977 ft 462 kts 11°
2026-05-07 18:29 -21.79790 34.14230 38782 ft 459 kts 11°
2026-05-07 18:29 -21.76769 34.15317 38273 ft 457 kts 11°
2026-05-07 18:29 -21.73766 34.16396 37760 ft 454 kts 11°
2026-05-07 18:30 -21.70784 34.17469 37325 ft 450 kts 11°
2026-05-07 18:30 -21.67830 34.18532 36937 ft 445 kts 11°
2026-05-07 18:30 -21.64909 34.19581 36541 ft 441 kts 11°
2026-05-07 18:30 -21.62012 34.20622 36143 ft 437 kts 11°
2026-05-07 18:31 -21.59141 34.21651 35724 ft 433 kts 11°
2026-05-07 18:31 -21.56290 34.22673 35324 ft 430 kts 11°
2026-05-07 18:31 -21.53464 34.23685 34936 ft 426 kts 11°
2026-05-07 18:31 -21.50664 34.24688 34575 ft 423 kts 12°
2026-05-07 18:32 -21.47880 34.25685 34212 ft 419 kts 12°
2026-05-07 18:32 -21.45150 34.26662 33829 ft 416 kts 12°
2026-05-07 18:32 -21.42413 34.27641 33415 ft 412 kts 12°
2026-05-07 18:32 -21.39703 34.28611 33001 ft 409 kts 12°
2026-05-07 18:33 -21.37014 34.29572 32586 ft 406 kts 12°
2026-05-07 18:33 -21.34340 34.30527 32176 ft 403 kts 12°
2026-05-07 18:33 -21.31683 34.31476 31619 ft 403 kts 12°
2026-05-07 18:33 -21.28970 34.32438 30486 ft 419 kts 12°
2026-05-07 18:34 -21.26143 34.33437 29165 ft 435 kts 13°
2026-05-07 18:34 -21.23280 34.34455 28214 ft 441 kts 13°
2026-05-07 18:34 -21.20408 34.35487 27982 ft 427 kts 13°
2026-05-07 18:34 -21.17641 34.36486 27892 ft 412 kts 13°
2026-05-07 18:35 -21.14987 34.37444 27620 ft 383 kts 13°
2026-05-07 18:35 -21.12502 34.38332 27216 ft 379 kts 12°
2026-05-07 18:35 -21.10021 34.39211 26875 ft 374 kts 12°
2026-05-07 18:35 -21.07566 34.40080 26510 ft 370 kts 12°
2026-05-07 18:36 -21.05095 34.40956 26082 ft 368 kts 12°
2026-05-07 18:36 -21.02695 34.41808 25651 ft 368 kts 13°
2026-05-07 18:36 -21.00267 34.42671 25231 ft 367 kts 13°
2026-05-07 18:36 -20.97854 34.43529 24842 ft 365 kts 13°
2026-05-07 18:37 -20.95504 34.44576 24436 ft 369 kts 22°
2026-05-07 18:37 -20.93266 34.45921 24049 ft 369 kts 25°
2026-05-07 18:37 -20.91074 34.47344 23678 ft 368 kts 26°
2026-05-07 18:37 -20.88896 34.48778 23278 ft 366 kts 26°
2026-05-07 18:38 -20.86729 34.50194 22886 ft 363 kts 26°
2026-05-07 18:38 -20.84578 34.51584 22499 ft 360 kts 26°
2026-05-07 18:38 -20.82431 34.52956 22111 ft 358 kts 25°
2026-05-07 18:38 -20.80298 34.54308 21725 ft 355 kts 25°
2026-05-07 18:39 -20.78178 34.55644 21331 ft 353 kts 25°
2026-05-07 18:39 -20.76071 34.56969 20970 ft 350 kts 26°
2026-05-07 18:39 -20.73975 34.58284 20592 ft 348 kts 26°
2026-05-07 18:39 -20.71885 34.59594 20231 ft 346 kts 26°
2026-05-07 18:40 -20.69845 34.60872 19879 ft 344 kts 26°
2026-05-07 18:40 -20.67789 34.62159 19536 ft 341 kts 26°
2026-05-07 18:40 -20.65748 34.63437 19179 ft 339 kts 26°
2026-05-07 18:40 -20.63716 34.64708 18841 ft 337 kts 26°
2026-05-07 18:41 -20.61702 34.65968 18493 ft 335 kts 26°
2026-05-07 18:41 -20.59696 34.67222 18135 ft 333 kts 27°
2026-05-07 18:41 -20.57705 34.68467 17728 ft 331 kts 27°
2026-05-07 18:41 -20.55716 34.69710 17316 ft 330 kts 27°
2026-05-07 18:42 -20.53740 34.70945 16918 ft 329 kts 27°
2026-05-07 18:42 -20.51768 34.72177 16519 ft 328 kts 27°
2026-05-07 18:42 -20.49802 34.73404 16138 ft 326 kts 27°
2026-05-07 18:42 -20.47845 34.74626 15963 ft 327 kts 27°
2026-05-07 18:43 -20.45881 34.75851 15983 ft 327 kts 27°
2026-05-07 18:43 -20.43914 34.77078 15961 ft 326 kts 27°
2026-05-07 18:43 -20.41959 34.78298 15924 ft 325 kts 27°
2026-05-07 18:43 -20.40011 34.79512 15629 ft 323 kts 27°
2026-05-07 18:44 -20.38069 34.80723 15199 ft 324 kts 27°
2026-05-07 18:44 -20.36116 34.81939 14796 ft 324 kts 27°
2026-05-07 18:44 -20.34170 34.83152 14429 ft 323 kts 27°
2026-05-07 18:44 -20.32229 34.84361 14083 ft 322 kts 27°
2026-05-07 18:45 -20.30299 34.85563 13721 ft 321 kts 27°
2026-05-07 18:45 -20.28376 34.86760 13327 ft 320 kts 27°
2026-05-07 18:45 -20.26487 34.87936 13001 ft 317 kts 27°
2026-05-07 18:45 -20.24595 34.89113 12761 ft 311 kts 27°
2026-05-07 18:46 -20.22746 34.90265 12564 ft 304 kts 27°
2026-05-07 18:46 -20.20935 34.91391 12278 ft 300 kts 27°
2026-05-07 18:46 -20.19137 34.92509 11970 ft 298 kts 27°
2026-05-07 18:46 -20.17347 34.93620 11629 ft 297 kts 27°
2026-05-07 18:47 -20.15565 34.94727 11313 ft 296 kts 27°
2026-05-07 18:47 -20.13792 34.95828 11008 ft 294 kts 27°
2026-05-07 18:47 -20.12033 34.96919 10707 ft 292 kts 27°
2026-05-07 18:47 -20.10279 34.98008 10382 ft 291 kts 27°
2026-05-07 18:48 -20.08534 34.99091 10080 ft 289 kts 27°
2026-05-07 18:48 -20.06801 35.00167 9776 ft 288 kts 27°
2026-05-07 18:48 -20.05077 35.01236 9458 ft 286 kts 28°
2026-05-07 18:48 -20.03364 35.02299 9136 ft 284 kts 28°
2026-05-07 18:49 -20.01663 35.03353 8816 ft 282 kts 28°
2026-05-07 18:49 -19.99968 35.04405 8500 ft 281 kts 28°
2026-05-07 18:49 -19.98308 35.05433 8192 ft 279 kts 28°
2026-05-07 18:49 -19.96635 35.06469 7872 ft 278 kts 28°
2026-05-07 18:50 -19.94969 35.07501 7592 ft 276 kts 28°
2026-05-07 18:50 -19.93258 35.08364 7285 ft 269 kts 15°
2026-05-07 18:50 -19.91489 35.08867 7168 ft 252 kts 12°
2026-05-07 18:50 -19.89852 35.09289 6877 ft 234 kts 12°
2026-05-07 18:51 -19.88277 35.09704 6634 ft 231 kts 13°
2026-05-07 18:51 -19.86737 35.10045 6390 ft 222 kts
2026-05-07 18:51 -19.85229 35.10303 5966 ft 221 kts 26°
2026-05-07 18:51 -19.84147 35.11370 6057 ft 219 kts 61°
2026-05-07 18:52 -19.83787 35.12969 6108 ft 229 kts 90°
2026-05-07 18:52 -19.83899 35.14674 6116 ft 233 kts 95°
2026-05-07 18:52 -19.84085 35.16371 6065 ft 229 kts 96°
2026-05-07 18:52 -19.84274 35.18027 5867 ft 225 kts 96°
2026-05-07 18:53 -19.84464 35.19659 5594 ft 225 kts 96°
2026-05-07 18:53 -19.84663 35.21331 5330 ft 225 kts 96°
2026-05-07 18:53 -19.84863 35.22971 5106 ft 223 kts 96°
2026-05-07 18:53 -19.85065 35.24599 4872 ft 222 kts 96°
2026-05-07 18:54 -19.85266 35.26189 4732 ft 216 kts 96°
2026-05-07 18:54 -19.85474 35.27806 4764 ft 226 kts 96°
2026-05-07 18:54 -19.85826 35.29430 4764 ft 231 kts 112°
2026-05-07 18:54 -19.86762 35.30835 4770 ft 236 kts 142°
2026-05-07 18:55 -19.88239 35.31509 4771 ft 237 kts 174°
2026-05-07 18:55 -19.89844 35.31244 4766 ft 236 kts 211°
2026-05-07 18:55 -19.90932 35.29999 4764 ft 232 kts 251°
2026-05-07 18:55 -19.91019 35.28337 4766 ft 228 kts 290°
2026-05-07 18:56 -19.90252 35.26900 4767 ft 222 kts 297°
2026-05-07 18:56 -19.90030 35.25271 4755 ft 232 kts 256°
2026-05-07 18:56 -19.90666 35.23699 4784 ft 233 kts 246°
2026-05-07 18:56 -19.91294 35.22104 4717 ft 235 kts 251°
2026-05-07 18:57 -19.91798 35.20457 4623 ft 233 kts 255°
2026-05-07 18:57 -19.92196 35.18804 4508 ft 229 kts 259°
2026-05-07 18:57 -19.92495 35.17147 4407 ft 229 kts 261°
2026-05-07 18:57 -19.92790 35.15487 4305 ft 228 kts 260°
2026-05-07 18:58 -19.93091 35.13833 4205 ft 228 kts 260°
2026-05-07 18:58 -19.93367 35.12183 4173 ft 224 kts 268°
2026-05-07 18:58 -19.93055 35.10591 4094 ft 222 kts 300°
2026-05-07 18:58 -19.91990 35.09464 3845 ft 216 kts 333°
2026-05-07 18:59 -19.90562 35.09103 3685 ft 208 kts
2026-05-07 18:59 -19.89171 35.09339 3557 ft 197 kts 14°
2026-05-07 18:59 -19.87878 35.09704 3452 ft 186 kts 14°
2026-05-07 18:59 -19.86679 35.10049 3407 ft 176 kts 15°
2026-05-07 19:00 -19.85898 35.10298 3343 ft 171 kts 12°
2026-05-07 19:00 -19.84522 35.09788 3252 ft 170 kts 303°
2026-05-07 19:00 -19.84145 35.08589 3232 ft 175 kts 284°
2026-05-07 19:00 -19.83824 35.07303 3031 ft 181 kts 285°
2026-05-07 19:01 -19.83501 35.06042 2808 ft 173 kts 284°
2026-05-07 19:01 -19.83193 35.04825 2581 ft 169 kts 284°
2026-05-07 19:01 -19.82887 35.03615 2369 ft 171 kts 284°
2026-05-07 19:01 -19.82579 35.02393 2167 ft 171 kts 283°
2026-05-07 19:02 -19.82271 35.01176 1958 ft 171 kts 283°
2026-05-07 19:02 -19.81966 34.99966 1757 ft 168 kts 283°
2026-05-07 19:02 -19.81670 34.98791 1490 ft 160 kts 283°
2026-05-07 19:02 -19.81393 34.97696 1260 ft 148 kts 282°
2026-05-07 19:03 -19.81133 34.96668 1083 ft 143 kts 283°
2026-05-07 19:03 -19.80876 34.95651 888 ft 141 kts 283°
2026-05-07 19:03 -19.80626 34.94663 711 ft 139 kts 283°
2026-05-07 19:03 -19.80376 34.93675 508 ft 138 kts 284°
2026-05-07 19:04 -19.80132 34.92694 235 ft 135 kts 283°
2026-05-07 19:04 -19.79889 34.91737 84 ft 136 kts 284°
2026-05-07 19:04 -19.79663 34.90839 49 ft 106 kts 285°
2026-05-07 19:04 -19.79519 34.90275 47 ft 52 kts 285°
2026-05-07 19:05 -19.79470 34.90081 48 ft 13 kts 285°
2026-05-07 19:05 -19.79429 34.89919 48 ft 29 kts 285°
2026-05-07 19:05 -19.79382 34.89726 49 ft 22 kts 276°
2026-05-07 19:05 -19.79463 34.89668 49 ft 15 kts 168°
2026-05-07 19:06 -19.79564 34.89702 48 ft 15 kts 162°
2026-05-07 19:06 -19.79679 34.89909 48 ft 19 kts 107°
2026-05-07 19:06 -19.79718 34.90044 47 ft 19 kts 112°
2026-05-07 19:07 -19.79743 34.90117 48 ft 13 kts 88°
2026-05-07 19:07 -19.79710 34.90169 48 ft 0 kts 40°